Location: LDNL
(36.4545°S, 141.6685°E)
Time: 11:19:28
(UTC+10:00)

Tiros 1 despin weight - Pass Details

Date: 12 August 2022
Orbit: 590 x 639 km, 48.2° (Epoch: 23 September)

Event Time Altitude Azimuth Distance (km) Brightness Sun altitude
Rises 01:07:54 0° 288° (WNW) 2,901 - -67.7°
Reaches altitude 10° 01:10:17 10° 281° (W) 2,007 - -67.5°
Maximum altitude 01:14:44 45° 208° (SSW) 870 - -67.2°
Drops below altitude 10° 01:19:16 10° 134° (SE) 2,044 - -66.8°
Sets 01:21:42 0° 128° (SE) 2,961 - -66.6°
